User: anonymous   Login
Location: Meetinghouse Hill
(42.7686°N, 71.7752°W)
Time: 00:57:50
(UTC-05:00)
Language:

Iridium 34 - Orbit

View from above orbital plane
View from above orbital plane
View from above satellite
View from above satellite

Ground track
Ground track

The orbit data is extracted from the following two-line orbital elements,

1 24969U 97056E   16044.49332995  .00000334  00000-0  11206-3 0  9999
2 24969  86.4014 163.5148 0002051  97.2349 262.9080 14.34217993962349
Epoch (UTC): 13 February 2016 11:50:23
Eccentricity: 0.0002051
inclination: 86.4014°
perigee height: 776 km
apogee height: 779 km
right ascension of ascending node: 163.5148°
argument of perigee: 97.2349°
revolutions per day: 14.34217993
mean anomaly at epoch: 262.9080°
orbit number at epoch: 96234

The dashed part of the orbit path shows where the satellite is in the earth's shadow,  

DLR